CZ-6A DEB, 54919

Orbit data source: Space-Track

CZ-6A DEB, 54919 is space debris in SSO originally from a launch on Fri, 11 Nov 2022 UTC launched from the Taiyaun Space Center, China (TSC). Debris objects in space refer to the collection of defunct objects orbiting the Earth. Examples of debris include non-operational satellites, rocket bodies, and fragments generated from explosions, collisions, or faulty payload assembly.

Loading next visibility...
Identifier
54919, 2022-151RG
Orbit
SSO
Country
Flag of CNCN / PRC
Related business
Manufacturer
SAST
Mission
Spacecraft
Bus & Motor
Unknown
Mass
Unknown
Launch date (UTC)
2022-11-11 (4 years ago)
Launch vehicle
Unknown
Launch site
Taiyaun Space Center, China (TSC)
Object type
Payload
Rocket body
Debris
Shape & HBR
Unknown shape, 0.1 m
Radar Cross Section
Small (<0.1 m²)

Expand to show TLE details & history
Last TLE update: 2 days ago

TLE from 2 days ago
0 CZ-6A DEB
1 54919U 22151RG  26171.45018738  .00008426  00000-0  12939-2 0  9998
2 54919  98.6223 237.5328 0069649 271.4649  87.8579 14.72207859187282
Epoch: 2026-06-20T10:48Z
TLE epoch observation values (Epoch: 2026-06-20T10:48:16.189Z)
Latitude
-0.00001°
Longitude
166.80071°
Altitude
655.527 km
Speed
7.531 km/s
True Right ascension
15h 50m 07s
True Declination
0° 00' 00"
Sunlit
Object was in full shadow at epoch
Visualization orbit readout
Latitude
Unknown
Longitude
Unknown
Altitude
Unknown
Speed
Unknown
Apparent Right ascension
Unknown
Apparent Declination
Unknown
Sunlit
N/A
Visualization observer readout
Local Sidereal Time
21:27:46
Azimuth
Unknown
Elevation
Unknown
Doppler factor
Unknown
Orbital elements
Apogee altitude
700.071 km
Perigee altitude
602.155 km
Semi-major axis
7,029.25 km
Eccentricity
0.00696
Inclination
98.6223°
RAAN
237.5328°
Arg. of periapsis
271.4649°
True anomaly
88.65569°
Mean anomaly
87.8579°
Eccentric anomaly
88.25677°
Mean motion
3.68281 °/min
Orbital period
97.75 mins
BSTAR
0.0012939
Loading maneuver chart data...
Computing Atmospheric mass density...
Loading historical data...
Loading historical data...
Loading historical data...
Loading historical data...
Loading historical data...
Loading historical data...
Loading historical data...

Documentation

Showing up to 5 results
|